Terminal Aerodrome Forecast
Issued by NWS La Crosse, WI

Home | Current Version | Previous Version | Text Only | Print | Product List | Glossary On
Versions: 1 2 3 4 5 6 7 8 9 10 11 12 13 14 15 16 17 18 19 20 21 22 23 24 25 26 27 28 29 30
000
FTUS43 KARX 021732
TAFLSE
TAF
KLSE 021732Z 0218/0318 23012G20KT P6SM SCT120
     FM022200 29016G28KT P6SM SCT040
     FM030000 31010KT P6SM SCT040
     FM030400 31006KT P6SM SKC=

USA.gov is the U.S. government's official web portal to all federal, state and local government web resources and services.